Showing default

HORYU 4, 41340

Orbit data source: Space-Track

HORYU 4, 41340 is a payload satellite owned by Kyutech (JP) in LEO that was launched on Wed, 17 Feb 2016 UTC via an H-IIA 202 launch vehicle from the Tanegashima Space Center (TNSTA). Payload-class satellites include a variety of spacecraft equipped with specific instruments for various scientific and technological missions. These include communications satellites like Starlink; space stations such as the ISS; scientific satellites like the Hubble; Earth observation satellites from companies like Planet Labs, Umbra, and HawkEye 360; GPS; miniature CubeSats for education and research; and military/defense satellites.

Not visible in the next 10 days
Identifier
41340, 2016-012D
Orbit
LEO
Country
Flag of JPJP / JPN
Related business
Manufacturer
Kyutech
Mission
Operational Amateur Technology
Bus & Motor
HORYU, Unknown motor
Mass
10 kg wet, 10 kg dry
Launch date (UTC)
2016-02-17 (10 years ago)
Launch vehicle
H-IIA 202
Launch site
Tanegashima Space Center (TNSTA)
Object type
Payload
Rocket body
Debris
Shape & HBR
Box, 0.2 m
Radar Cross Section
0.290 m², Medium (>0.1 m² and < 1m²)

Expand to show TLE details & history
Last TLE update: 11 hours ago

TLE from 11 hours ago
0 HORYU 4
1 41340U 16012D   25259.19288891  .00033943  00000-0  77869-3 0  9993
2 41340  30.9946 186.7462 0005987 355.4003   4.6588 15.41476440527997
Epoch: 2025-09-16T04:37Z
TLE epoch observation values (Epoch: 2025-09-16T04:37:45.601Z)
Latitude
-0.00003°
Longitude
121.91944°
Altitude
436.171 km
Speed
7.655 km/s
True Right ascension
12h 26m 59s
True Declination
0° 00' 00"
Sunlit
Object was in daylight at epoch
Visualization orbit readout
Latitude
Unknown
Longitude
Unknown
Altitude
Unknown
Speed
Unknown
Apparent Right ascension
Unknown
Apparent Declination
Unknown
Sunlit
N/A
Visualization observer readout
Local Sidereal Time
08:30:31
Azimuth
Unknown
Elevation
Unknown
Doppler factor
Unknown
Orbital elements
Apogee altitude
449.731 km
Perigee altitude
441.561 km
Semi-major axis
6,823.783 km
Eccentricity
0.0006
Inclination
30.9946°
RAAN
186.7462°
Arg. of periapsis
355.4003°
True anomaly
4.66438°
Mean anomaly
4.6588°
Eccentric anomaly
4.66159°
Mean motion
3.8504 °/min
Orbital period
93.5 mins
BSTAR
0.00077869
Loading maneuver chart data...
Computing Atmospheric mass density...
Loading historical data...
Loading historical data...
Loading historical data...
Loading historical data...
Loading historical data...
Loading historical data...
Loading historical data...

Documentation

Showing up to 5 results
|